Wind_Speed
48 48 44 42 40 38 34 29 26 24 25 20 19 17 18 17 17 18 21 25 26 25 24 21 21 20 21 16 4 12 14 22 20 19 13 12 15 18 24 19 13 14 14 15 16
49 49 46 43 40 39 34 30 27 28 26 21 20 18 20 18 18 19 21 25 27 25 22 21 17 19 18 14 7 6 8 17 18 18 11 12 12 18 21 26 16 14 14 14 13
48 51 48 43 41 38 35 32 30 30 27 24 22 20 20 18 19 20 21 25 27 25 23 18 17 18 20 14 7 3 5 10 14 17 14 13 14 18 19 25 21 15 14 13 12
50 50 48 45 44 39 36 34 33 32 29 25 22 22 20 19 19 20 22 23 28 23 23 19 18 20 19 10 10 9 11 6 11 16 15 16 13 12 15 17 23 16 13 14 13
52 52 50 47 45 42 39 37 35 34 30 27 25 23 20 18 20 21 22 22 27 26 25 20 16 20 16 9 6 10 8 5 9 15 12 14 19 16 10 10 16 19 11 10 12
54 56 54 51 48 43 41 39 37 34 31 30 27 25 22 19 21 21 22 21 26 27 27 21 15 18 14 8 1 4 6 4 8 10 10 13 23 20 16 8 10 13 14 11 6
57 59 57 53 50 47 44 41 37 34 33 31 28 26 21 21 21 21 20 20 25 25 26 21 16 19 15 9 1 7 4 2 6 11 6 13 21 25 23 13 8 8 10 12 11
62 61 60 58 55 51 47 43 39 36 34 32 29 27 23 20 23 18 17 18 25 24 23 19 16 17 14 13 4 4 2 6 10 11 13 17 24 26 28 13 17 9 4 6 9
64 64 63 63 59 55 49 46 42 39 37 30 29 25 22 23 23 16 14 19 25 25 22 19 16 19 15 11 7 6 7 4 8 8 8 13 15 19 25 14 12 10 10 3 3
68 66 66 66 62 60 53 47 44 41 36 35 33 27 28 23 21 17 14 19 24 24 22 19 14 18 16 12 7 7 7 10 11 7 11 12 15 20 22 20 12 11 11 10 4
71 68 68 67 63 60 57 52 50 47 41 38 33 32 28 22 23 17 15 20 22 25 22 19 15 14 13 16 12 10 14 16 13 19 16 17 20 19 19 13 12 8 14 13 10
74 70 69 69 65 61 59 55 49 53 48 41 37 32 28 27 22 18 17 19 20 25 22 18 15 15 14 15 15 9 10 16 18 18 14 15 16 15 15 13 9 9 12 9 3
77 71 69 68 68 63 58 61 56 51 46 40 34 34 30 26 22 21 18 18 19 23 22 19 15 16 17 19 19 15 15 17 19 18 18 20 12 11 11 11 6 9 12 8 9
79 73 69 67 64 66 60 61 57 51 44 42 36 37 32 27 25 23 20 19 18 22 21 20 17 17 18 15 15 14 14 17 18 20 19 18 13 10 17 16 16 13 12 13 11
80 74 70 66 62 65 65 61 53 49 47 46 39 37 35 30 28 26 22 21 20 20 21 19 16 15 19 16 14 11 14 17 16 17 18 16 12 15 17 21 15 14 11 12 16
81 76 72 71 66 64 61 59 53 51 49 47 41 35 36 34 29 27 24 24 20 21 23 19 15 16 19 16 14 11 16 16 14 13 13 14 16 22 28 25 24 23 22 24 20
81 77 74 75 70 65 60 56 55 53 49 48 43 38 36 33 29 26 27 24 21 21 23 19 16 15 18 14 15 12 12 15 12 7 9 13 16 17 17 21 21 23 23 14 8
81 78 74 76 73 66 62 58 58 55 52 50 46 40 38 32 29 29 29 24 23 22 23 19 16 14 15 13 14 14 13 12 9 6 8 11 15 13 13 15 18 18 17 19 19
81 77 74 75 74 70 64 63 56 54 52 50 47 42 38 35 32 31 28 24 25 25 23 19 15 13 14 9 10 11 14 15 15 12 9 10 12 12 12 14 15 17 18 21 21
79 78 76 72 71 71 68 65 60 56 54 52 49 44 40 40 38 33 30 28 26 28 24 19 16 14 13 7 8 7 12 12 15 16 12 13 14 12 13 15 13 12 17 20 22
78 77 78 71 69 69 72 68 64 61 56 53 50 48 47 43 40 35 32 29 28 31 24 20 17 15 11 6 7 6 8 10 14 12 10 10 11 15 16 16 16 17 17 18 21
78 78 76 73 70 67 69 67 65 61 57 54 49 45 49 46 43 39 35 33 32 29 24 21 19 16 12 9 7 8 8 8 14 11 9 10 9 12 12 13 14 18 22 24 23
78 78 76 75 74 73 71 66 62 59 55 54 50 45 44 42 42 40 38 37 33 29 25 22 20 17 12 9 10 13 10 8 8 12 11 11 11 11 11 12 14 17 18 20 20
80 78 76 75 77 76 72 68 66 63 60 56 52 49 47 46 45 44 41 37 34 30 27 23 23 18 14 11 14 16 12 11 12 14 13 13 12 14 14 13 16 19 19 19 19
83 81 80 77 76 76 74 69 67 65 63 61 60 57 53 51 48 48 44 40 36 32 28 26 26 17 19 15 16 18 16 14 15 17 17 17 16 13 11 14 18 21 21 23 24
83 85 85 82 80 79 76 72 68 66 63 61 60 55 55 54 51 51 49 44 39 35 32 29 27 22 21 19 18 19 21 19 19 21 24 21 20 14 13 15 17 20 24 27 27
87 85 88 87 84 83 80 77 73 69 67 65 61 57 59 57 52 52 51 46 42 39 35 31 29 27 24 21 22 22 25 25 24 26 30 28 24 17 15 17 19 18 20 27 31
Wind_Direction
212 213 211 211 209 213 211 213 213 215 225 230 243 253 267 280 293 300 312 320 320 332 331 337 332 335 346 6 17 87 36 31 34 30 47 47 43 38 24 37 49 74 105 129 138
213 212 212 211 207 212 210 213 212 212 222 227 240 252 264 276 287 297 313 322 318 329 335 334 331 329 340 344 9 69 32 44 46 36 19 21 23 46 35 42 52 70 100 118 128
214 211 211 210 208 208 208 210 212 213 220 228 241 252 262 273 284 296 312 322 318 330 339 332 327 326 338 336 341 247 14 60 45 50 52 38 30 38 50 45 50 71 92 109 121
210 211 211 205 206 207 205 208 210 213 220 229 238 247 260 271 282 295 312 321 315 328 336 336 331 334 342 333 336 353 341 30 54 51 62 38 34 26 30 58 47 54 98 122 128
210 207 207 204 204 206 206 209 211 215 220 228 237 248 254 267 284 293 311 318 315 323 332 333 340 338 355 354 351 3 47 96 63 82 53 45 35 50 45 37 67 47 69 98 128
209 205 203 202 204 205 206 208 212 217 222 228 236 245 255 265 279 294 308 315 314 322 328 333 342 338 352 6 323 108 106 93 60 40 73 39 36 39 49 41 45 71 76 97 104
209 207 203 201 202 204 204 206 212 216 220 228 237 242 250 266 275 292 303 313 314 325 328 330 341 344 353 10 234 173 134 334 8 26 33 42 30 35 37 40 39 64 58 106 123
208 207 205 200 201 202 205 206 210 214 220 227 238 246 255 263 270 287 298 313 318 329 328 327 334 345 356 1 199 152 230 331 11 37 45 28 28 29 26 30 47 39 57 56 99
210 206 205 202 204 204 203 207 210 214 219 223 235 242 249 259 265 275 292 311 318 333 328 329 336 344 357 347 353 268 267 296 329 348 35 13 33 17 16 11 31 54 85 152 83
212 206 205 205 205 206 207 208 209 213 220 225 235 240 240 253 266 271 287 306 318 334 326 328 334 346 344 341 332 270 286 311 300 305 324 331 357 350 5 6 20 30 43 60 117
210 206 204 205 205 208 207 209 214 218 218 226 231 233 240 250 260 267 281 294 318 332 326 325 327 346 341 335 330 284 272 285 293 281 301 305 316 334 349 345 330 337 357 11 39
207 206 203 203 205 206 209 211 210 218 223 230 225 235 234 243 252 266 276 290 322 327 325 320 321 338 339 336 328 322 324 324 315 302 300 302 308 323 333 318 315 315 316 322 66
204 205 201 202 206 207 210 211 217 218 222 224 222 230 236 242 250 259 273 288 315 327 320 317 318 334 348 346 345 339 333 342 332 319 325 349 335 332 338 315 311 298 305 307 313
201 202 200 201 205 208 210 211 215 218 219 221 225 228 236 237 246 258 267 281 305 325 316 317 317 334 336 341 339 324 344 344 333 334 336 344 338 315 310 307 300 273 278 296 289
198 200 198 197 200 206 210 212 214 215 218 219 221 226 234 240 246 258 261 276 297 315 318 313 312 323 324 325 338 324 352 349 336 330 326 324 309 293 288 291 297 288 276 298 275
196 198 197 197 200 204 207 212 212 214 219 214 222 226 231 238 244 253 262 270 291 305 316 308 307 316 325 320 333 357 0 352 334 335 321 316 291 278 286 291 302 308 301 303 279
194 197 196 198 201 203 206 206 211 213 212 214 222 226 233 241 246 254 260 268 283 304 310 301 297 313 327 323 328 3 6 4 345 348 316 304 292 284 280 289 307 296 296 307 353
193 196 196 200 202 203 205 207 211 215 216 220 227 232 236 244 247 251 255 261 280 293 307 293 294 312 325 318 327 338 0 1 348 341 311 292 290 302 305 308 318 325 326 330 336
193 196 197 201 203 206 207 209 213 212 215 218 225 230 233 237 241 242 248 262 276 288 304 287 287 302 321 305 311 342 353 350 343 329 313 315 314 332 326 342 350 343 333 332 322
194 196 198 202 204 206 207 211 213 215 217 221 227 229 234 231 233 242 253 262 277 287 292 279 282 293 325 302 303 332 332 332 326 328 340 336 333 354 357 5 11 360 354 349 342
195 197 201 202 205 208 210 212 216 219 221 224 230 232 230 232 239 247 255 264 273 282 281 271 272 285 307 288 277 292 306 315 312 330 333 324 327 338 347 355 352 350 345 343 338
197 200 202 203 205 208 211 214 218 220 224 227 228 228 229 237 244 250 255 260 267 278 267 268 266 275 301 302 260 254 267 278 305 313 308 299 293 310 324 338 331 331 334 335 334
200 203 205 204 206 210 213 216 218 221 223 226 228 230 231 236 243 246 250 256 260 266 254 259 261 270 284 297 257 258 255 253 287 279 287 286 283 283 296 311 319 326 330 338 339
204 206 208 208 209 213 216 218 221 222 225 227 229 231 232 237 243 248 251 254 262 259 252 257 254 260 272 276 254 257 244 241 250 263 273 276 275 285 296 304 312 320 321 323 325
207 208 210 212 213 215 217 219 221 223 225 228 231 232 234 237 241 247 248 252 256 252 252 255 253 253 266 269 254 258 261 246 253 258 259 272 281 291 300 302 308 312 316 324 330
210 211 213 213 215 217 219 221 221 223 225 228 230 230 233 237 237 242 246 248 249 249 248 252 254 254 263 266 261 254 263 263 254 256 260 262 272 285 292 300 311 314 322 326 323
211 213 214 216 217 219 221 223 223 224 225 228 231 232 233 233 235 239 244 244 243 246 247 246 251 252 253 260 260 252 254 261 261 259 265 265 264 268 284 294 302 311 316 319 324
Height
10926 10932 10938 10943 10948 10954 10959 10963 10967 10970 10972 10975 10977 10979 10981 10981 10982 10981 10980 10977 10976 10976 10970 10970 10965 10963 10961 10958 10956 10951 10947 10944 10940 10938 10937 10935 10932 10930 10929 10923 10920 10919 10921 10923 10925
10919 10926 10933 10938 10944 10950 10955 10960 10964 10967 10969 10973 10975 10978 10979 10980 10981 10980 10980 10976 10973 10976 10972 10967 10965 10962 10961 10958 10957 10954 10949 10946 10943 10942 10939 10938 10936 10932 10931 10926 10925 10923 10923 10925 10927
10913 10920 10927 10934 10940 10946 10952 10957 10961 10964 10967 10971 10973 10975 10977 10979 10979 10979 10978 10975 10970 10973 10971 10966 10963 10961 10959 10955 10954 10954 10951 10949 10947 10944 10942 10939 10938 10935 10932 10931 10931 10929 10928 10927 10928
10907 10914 10921 10929 10935 10942 10948 10953 10958 10961 10965 10968 10971 10973 10975 10977 10978 10978 10977 10973 10967 10971 10968 10965 10962 10960 10958 10954 10952 10953 10953 10952 10950 10945 10944 10940 10938 10936 10935 10933 10933 10933 10934 10932 10931
10900 10908 10915 10922 10930 10937 10943 10948 10954 10958 10962 10965 10968 10971 10973 10975 10976 10976 10975 10971 10965 10967 10966 10965 10963 10959 10957 10953 10952 10953 10953 10951 10950 10949 10947 10943 10939 10935 10933 10934 10934 10935 10935 10934 10934
10893 10900 10909 10916 10924 10931 10938 10944 10949 10954 10959 10962 10966 10968 10971 10973 10974 10975 10974 10969 10964 10964 10963 10962 10961 10958 10956 10953 10953 10954 10952 10952 10952 10952 10947 10944 10942 10938 10935 10936 10937 10938 10939 10937 10936
10884 10892 10901 10910 10918 10926 10933 10940 10945 10950 10955 10959 10963 10966 10969 10971 10971 10973 10971 10967 10962 10963 10961 10959 10959 10957 10955 10953 10953 10952 10952 10953 10953 10951 10951 10949 10947 10943 10941 10940 10940 10939 10942 10942 10941
10875 10884 10893 10903 10911 10919 10927 10934 10940 10946 10952 10957 10960 10962 10966 10968 10969 10971 10969 10965 10960 10962 10960 10959 10958 10957 10954 10953 10952 10953 10954 10954 10953 10951 10950 10950 10949 10948 10946 10945 10944 10941 10942 10946 10946
10866 10875 10884 10895 10905 10913 10921 10929 10936 10942 10948 10953 10956 10959 10963 10964 10965 10968 10967 10964 10959 10961 10958 10957 10957 10955 10954 10951 10951 10953 10953 10954 10951 10950 10950 10950 10949 10950 10950 10949 10947 10947 10945 10946 10945
10855 10865 10875 10886 10897 10906 10917 10924 10930 10937 10943 10947 10951 10956 10957 10960 10963 10965 10966 10963 10960 10960 10957 10956 10956 10954 10953 10950 10951 10952 10952 10953 10953 10951 10951 10952 10951 10951 10950 10951 10950 10948 10946 10945 10944
10843 10855 10866 10879 10890 10900 10910 10917 10924 10931 10936 10941 10946 10950 10953 10958 10959 10961 10963 10961 10960 10958 10955 10954 10953 10955 10953 10948 10949 10950 10949 10949 10950 10951 10950 10950 10951 10951 10949 10950 10950 10948 10947 10945 10945
10831 10845 10857 10871 10882 10892 10901 10909 10915 10922 10929 10935 10941 10947 10950 10954 10956 10958 10959 10959 10960 10956 10954 10953 10953 10953 10952 10948 10945 10946 10946 10947 10945 10944 10948 10949 10948 10948 10947 10947 10945 10944 10944 10944 10944
10819 10835 10849 10863 10874 10883 10892 10899 10907 10917 10925 10931 10939 10943 10947 10950 10953 10955 10956 10957 10959 10956 10953 10952 10952 10952 10951 10949 10945 10945 10944 10942 10941 10941 10942 10945 10946 10945 10946 10945 10943 10942 10940 10940 10942
10808 10826 10841 10854 10866 10874 10883 10891 10902 10913 10921 10927 10933 10937 10942 10947 10949 10951 10953 10954 10957 10956 10953 10950 10950 10950 10948 10948 10948 10946 10943 10942 10941 10941 10940 10941 10942 10942 10942 10942 10943 10941 10940 10939 10940
10800 10817 10833 10847 10855 10865 10874 10885 10897 10906 10914 10919 10927 10933 10937 10942 10946 10948 10950 10952 10955 10954 10952 10952 10951 10951 10949 10947 10948 10946 10945 10942 10941 10941 10940 10940 10941 10940 10939 10940 10940 10938 10938 10938 10938
10792 10810 10824 10836 10846 10857 10868 10880 10891 10900 10908 10915 10921 10928 10932 10935 10941 10944 10948 10949 10952 10951 10950 10950 10951 10950 10948 10946 10946 10945 10945 10944 10941 10940 10939 10939 10939 10939 10939 10938 10936 10935 10935 10935 10934
10785 10802 10816 10827 10839 10851 10862 10874 10884 10892 10902 10908 10914 10921 10925 10931 10937 10941 10944 10946 10949 10947 10948 10948 10948 10949 10947 10945 10945 10946 10945 10944 10941 10941 10939 10937 10936 10937 10936 10935 10932 10931 10931 10930 10928
10778 10794 10807 10820 10832 10844 10856 10867 10875 10885 10896 10903 10910 10916 10922 10927 10932 10937 10940 10942 10944 10944 10945 10945 10946 10947 10946 10945 10944 10946 10945 10943 10943 10941 10938 10937 10934 10934 10932 10932 10929 10927 10926 10925 10925
10772 10788 10802 10812 10826 10838 10850 10858 10869 10880 10889 10895 10902 10910 10916 10921 10927 10931 10935 10938 10939 10940 10943 10942 10944 10945 10945 10946 10945 10944 10943 10942 10941 10941 10937 10935 10933 10932 10931 10930 10928 10926 10924 10923 10921
10768 10783 10795 10806 10820 10832 10842 10851 10862 10872 10880 10888 10897 10905 10909 10915 10921 10925 10929 10932 10935 10935 10938 10939 10941 10942 10944 10945 10945 10946 10944 10943 10942 10939 10936 10933 10930 10931 10929 10927 10928 10926 10924 10922 10919
10765 10777 10786 10802 10814 10826 10835 10845 10854 10864 10873 10883 10891 10897 10902 10909 10914 10920 10924 10928 10930 10931 10933 10935 10938 10939 10942 10944 10945 10945 10945 10943 10942 10938 10936 10933 10931 10930 10928 10927 10925 10924 10923 10922 10919
10762 10772 10782 10798 10810 10819 10825 10836 10847 10856 10866 10875 10883 10890 10897 10902 10907 10913 10918 10921 10925 10927 10928 10931 10933 10936 10939 10941 10943 10943 10944 10944 10942 10938 10936 10933 10933 10932 10930 10929 10927 10925 10922 10920 10918
10758 10766 10778 10790 10801 10808 10817 10829 10841 10850 10861 10868 10877 10884 10890 10896 10900 10905 10910 10915 10919 10922 10924 10926 10930 10933 10936 10937 10939 10941 10943 10943 10941 10938 10937 10934 10932 10931 10931 10930 10928 10925 10923 10921 10917
10752 10762 10772 10783 10792 10801 10812 10823 10833 10843 10851 10860 10869 10875 10882 10889 10892 10898 10903 10909 10913 10915 10919 10922 10926 10930 10932 10934 10935 10937 10939 10939 10938 10936 10934 10934 10933 10931 10930 10929 10927 10925 10923 10920 10918
10743 10755 10763 10775 10784 10793 10802 10814 10825 10834 10843 10851 10858 10866 10874 10880 10886 10888 10894 10900 10904 10908 10912 10916 10919 10926 10928 10929 10930 10931 10933 10934 10934 10933 10932 10931 10930 10931 10930 10929 10926 10922 10920 10918 10916
10732 10742 10752 10762 10773 10780 10790 10802 10814 10824 10832 10840 10845 10856 10864 10870 10876 10877 10883 10891 10897 10901 10905 10909 10913 10919 10921 10923 10924 10926 10926 10928 10929 10928 10927 10929 10928 10929 10928 10927 10924 10922 10918 10914 10911
10717 10727 10737 10749 10760 10768 10779 10788 10801 10812 10820 10827 10836 10846 10850 10853 10864 10869 10873 10881 10887 10892 10897 10903 10906 10911 10913 10916 10918 10920 10920 10921 10923 10923 10921 10923 10925 10926 10926 10925 10922 10921 10918 10912 10907